[TLELIST] Archives

 

Current TLEs <26 AUG 2005>

August 27th 2005 PDT

HST 1 20580U 90037B 05239.19553867 .00000962 00000-0 62888-4 0 4131 2 20580 28.4682 166.0843 0003528 300.7474 59.2770 14.99810041640915 ISS 1 25544U 98067A 05239.33379630 .00027883 00000-0 21126-3 0 2281 2 25544 51.6446 256.6692 0001180 355.8721 199.3440 15.72152217386870 CHANDRA 1 25867U 99040B 05239.25000000 .00000000 00000-0 00000+0 0 8253 2 25867 57.5495 102.4782 5653191 297.1026 359.6863 0.37794957 1211 These 2-Line Elements (TLEs) ...Continue Reading

Current TLEs <24 AUG 2005>

August 24th 2005 PDT

HST 1 20580U 90037B 05235.20287019 .00000432 00000-0 21007-4 0 4109 2 20580 28.4680 192.0996 0003912 258.7901 101.2246 14.99803945640310 ISS 1 25544U 98067A 05236.32258020 .00014120 00000-0 11030-3 0 2087 2 25544 51.6434 272.0884 0001256 334.3467 87.5771 15.71955706386402 CHANDRA 1 25867U 99040B 05233.95833333 .00000000 00000-0 00000+0 0 8235 2 25867 57.4962 102.6477 5652671 297.0880 359.3928 0.37802564 1214 These 2-Line Elements (TLEs) ...Continue Reading

Current TLEs <19 AUG 2005>

August 20th 2005 PDT

HST 1 20580U 90037B 05232.20836312 .00000444 00000-0 21905-4 0 4089 2 20580 28.4677 211.6095 0003917 227.7360 132.2897 14.99802362639860 ISS 1 25544U 98067A 05232.13113012 .00013713 00000-0 10782-3 0 1813 2 25544 51.6455 293.5413 0000964 320.2473 127.0490 15.71829994385740 CHANDRA 1 25867U 99040B 05231.33333333 .00000000 00000-0 00000+0 0 8229 2 25867 57.4954 102.7191 5641943 297.1237 2.0473 0.37786355 1212 These 2-Line Elements (TLEs) ...Continue Reading

Current TLEs <10 AUG 2005>

August 10th 2005 PDT

HST 1 20580U 90037B 05221.22848377 .00000737 00000-0 45137-4 0 4003 2 20580 28.4689 283.1637 0003812 118.7999 241.2971 14.99797236638215 ISS 1 25544U 98067A 05222.33074934 .00013707 00000-0 10885-3 0 1146 2 25544 51.6459 343.6927 0001183 233.7982 164.3614 15.71591282384206 CHANDRA 1 25867U 99040B 05220.70833333 .00000000 00000-0 00000+0 0 8177 2 25867 57.4443 102.8564 5633883 297.5046 355.3042 0.37796790 1216 These 2-Line Elements (TLEs) ...Continue Reading

[TLEMORELIST] Current TLEs <05 AUG 2005>

August 6th 2005 PDT

OSCAR 7 1 07530U 74089B 05217.71177591 -.00000028 00000-0 10000-3 0 4581 2 07530 101.6218 262.8862 0012181 138.3600 221.8402 12.53570742405851 OSCAR 10 1 14129U 83058B 05216.19645876 +.00000176 +00000-0 +10000-3 0 02026 2 14129 027.4171 019.7265 6030221 210.4405 093.7910 02.05865226138558 OSCAR 11 (UoSAT 2) 1 14781U 84021B 05217.99344137 .00000273 00000-0 44044-4 0 8453 2 14781 098.2017 216.5725 0009068 191.3190 168.7815 14.79282911149166 EGP 1 16908U 86061A 05216.37936831 -.00000083 +00000-0 +10000-3 0 ...Continue Reading

Current TLEs <05 AUG 2005>

August 6th 2005 PDT

HST 1 20580U 90037B 05216.63687695 +.00000725 +00000-0 +44148-4 0 03979 2 20580 028.4690 313.0790 0003713 070.6942 289.4047 14.99791935637525 ISS (ZARYA) 1 25544U 98067A 05218.12674769 -.00017180 00000-0 -12699-3 0 886 2 25544 051.6468 005.1941 0002697 229.0129 129.2398 15.71492976383538 CHANDRA 1 25867U 99040B 05218.08333333 +.00000000 +00000-0 +00000-0 0 08160 2 25867 057.4581 102.8999 5628866 297.5885 357.9012 00.37788501001213 STS-114 1 28775U 05026A 05217.64996528 -.00211482 00000-0 -16631-2 0 255 2 ...Continue Reading

Current TLEs <05 AUG 2005>

August 6th 2005 PDT

HST 1 20580U 90037B 05216.63687695 +.00000725 +00000-0 +44148-4 0 03979 2 20580 028.4690 313.0790 0003713 070.6942 289.4047 14.99791935637525 ISS (ZARYA) 1 25544U 98067A 05218.12674769 -.00017180 00000-0 -12699-3 0 886 2 25544 051.6468 005.1941 0002697 229.0129 129.2398 15.71492976383538 CHANDRA 1 25867U 99040B 05218.08333333 +.00000000 +00000-0 +00000-0 0 08160 2 25867 057.4581 102.8999 5628866 297.5885 357.9012 00.37788501001213 STS-114 1 28775U 05026A 05217.64996528 -.00211482 00000-0 -16631-2 0 255 2 ...Continue Reading

Current TLEs <04 AUG 2005>

August 4th 2005 PDT

HST 1 20580U 90037B 05215.57215346 .00000703 00000-0 42433-4 0 3961 2 20580 28.4690 320.0185 0003531 58.8747 301.2189 14.99790563637368 ISS 1 25544U 98067A 05216.29511330 -.00028664 00000-0 -21516-3 0 715 2 25544 51.6483 14.5662 0002212 213.6399 215.0698 15.71509758383253 CHANDRA 1 25867U 99040B 05215.41666667 .00000000 00000-0 00000+0 0 8151 2 25867 57.4713 102.9048 5626771 297.7179 354.8212 0.37784600 1211 STS-114 1 28 ...Continue Reading

Current TLEs <02 AUG 2005>

August 2nd 2005 PDT

HST 1 20580U 90037B 05213.70888437 .00000794 00000-0 49637-4 0 3953 2 20580 28.4687 332.1606 0003402 38.3010 321.7825 14.99788830637086 ISS 1 25544U 98067A 05214.97329198 .00044987 00000-0 34551-3 0 613 2 25544 51.6450 21.3333 0002096 197.3533 308.0135 15.71584650383046 CHANDRA 1 25867U 99040B 05212.79166667 .00000000 00000-0 00000+0 0 8143 2 25867 57.4651 102.9079 5630266 297.8343 357.4223 0.37789863 1211 STS-114 1 28 ...Continue Reading

Current TLEs <02 AUG 2005>

August 2nd 2005 PDT

HST 1 20580U 90037B 05213.70888437 .00000794 00000-0 49637-4 0 3953 2 20580 28.4687 332.1606 0003402 38.3010 321.7825 14.99788830637086 ISS 1 25544U 98067A 05214.97329198 .00044987 00000-0 34551-3 0 613 2 25544 51.6450 21.3333 0002096 197.3533 308.0135 15.71584650383046 CHANDRA 1 25867U 99040B 05212.79166667 .00000000 00000-0 00000+0 0 8143 2 25867 57.4651 102.9079 5630266 297.8343 357.4223 0.37789863 1211 STS-114 ...Continue Reading
  • This mailing list is a public mailing list - anyone may join or leave, at any time.
  • This mailing list is announce-only.

International Space Station (ISS) / Hubble Space Telescope (HST) / Chandra X-Ray Observatory Orbital Data via EMAIL

Privacy Policy:

Private list